METAR Formatted Surface Weather Observation
Issued by NWS

Home | Current Version | Previous Version | Text Only | Print | Product List | Glossary On
Versions: 1 2 3 4 5 6 7 8 9 10 11 12 13 14 15 16 17 18 19 20 21 22 23 24 25 26 27 28 29 30 31 32 33 34 35 36 37 38 39 40 41 42 43 44 45 46 47 48 49 50
000
SAUS45 KSLC 211422
MTRU16
METAR KU16 211358Z AUTO 28013KT 10SM SCT095 14/03 A2989
RMK AO2 PK WND 23027/1347 SLP751 T01390033 $
10/21/14 08:06:26  SPECI KU16 211406Z AUTO 28011KT 10SM FEW095 14/02 A2990
RMK AO2 WSHFT 1349 $



USA.gov is the U.S. government's official web portal to all federal, state and local government web resources and services.